| time (UTC) | temp C | wind direction | speed KPH | gust KPH | rain 1hr cm | rain 24hr cm | rain mn cm | humidity % | barometer mb |
| 20260507085603 | 12 | 23 | 9.7 | 17.7 | 0.00 | 0.10 | 0.00 | 71 | 1015.5 |
| 20260507085335 | 12 | 326 | 11.3 | 17.7 | 0.00 | 0.10 | 0.00 | 71 | 1015.4 |
| 20260507084604 | 12 | 345 | 9.7 | 16.1 | 0.00 | 0.13 | 0.00 | 71 | 1015.4 |
| 20260507084104 | 12 | 347 | 8.0 | 17.7 | 0.00 | 0.13 | 0.00 | 69 | 1015.5 |
| 20260507083838 | 11 | 30 | 9.7 | 17.7 | 0.00 | 0.13 | 0.00 | 71 | 1015.5 |
| 20260507083102 | 11 | 3 | 9.7 | 17.7 | 0.00 | 0.13 | 0.00 | 70 | 1015.5 |
| 20260507082846 | 11 | 0 | 8.0 | 14.5 | 0.00 | 0.13 | 0.00 | 70 | 1015.5 |
| 20260507082104 | 11 | 347 | 8.0 | 16.1 | 0.00 | 0.13 | 0.00 | 71 | 1015.5 |
| 20260507081605 | 11 | 13 | 9.7 | 16.1 | 0.00 | 0.13 | 0.00 | 72 | 1015.5 |
| 20260507081101 | 11 | 326 | 9.7 | 14.5 | 0.00 | 0.13 | 0.00 | 73 | 1015.5 |
| 20260507080830 | 11 | 0 | 9.7 | 17.7 | 0.00 | 0.13 | 0.00 | 72 | 1015.5 |
| 20260507075602 | 11 | 353 | 9.7 | 17.7 | 0.00 | 0.13 | 0.00 | 73 | 1015.4 |
| 20260507075102 | 11 | 329 | 9.7 | 16.1 | 0.00 | 0.13 | 0.00 | 71 | 1015.3 |
| 20260507074602 | 11 | 18 | 8.0 | 14.5 | 0.00 | 0.13 | 0.00 | 73 | 1015.4 |
| 20260507074331 | 11 | 24 | 9.7 | 16.1 | 0.00 | 0.13 | 0.00 | 74 | 1015.3 |
| 20260507073602 | 10 | 354 | 9.7 | 16.1 | 0.00 | 0.13 | 0.00 | 75 | 1015.3 |
| 20260507073102 | 10 | 15 | 9.7 | 19.3 | 0.00 | 0.13 | 0.00 | 76 | 1015.2 |
| 20260507072602 | 10 | 34 | 9.7 | 19.3 | 0.00 | 0.13 | 0.00 | 77 | 1015.2 |
| 20260507072102 | 10 | 344 | 8.0 | 12.9 | 0.00 | 0.13 | 0.00 | 81 | 1015.2 |
| 20260507071559 | 10 | 20 | 6.4 | 12.9 | 0.00 | 0.13 | 0.00 | 81 | 1015.2 |
| 20260507071057 | 10 | 354 | 8.0 | 12.9 | 0.00 | 0.13 | 0.00 | 82 | 1015.2 |
| 20260507070830 | 10 | 341 | 8.0 | 12.9 | 0.00 | 0.13 | 0.00 | 81 | 1015.2 |
| 20260507070331 | 10 | 352 | 6.4 | 11.3 | 0.00 | 0.13 | 0.00 | 83 | 1015.2 |
| 20260507070054 | 9 | 342 | 6.4 | 11.3 | 0.00 | 0.13 | 0.00 | 84 | 1015.2 |
| 20260507065329 | 9 | 334 | 8.0 | 12.9 | 0.00 | 0.13 | 0.00 | 83 | 1015.2 |
| 20260507064604 | 9 | 313 | 8.0 | 12.9 | 0.00 | 0.13 | 0.00 | 86 | 1015.1 |
| 20260507064101 | 8 | 340 | 8.0 | 12.9 | 0.00 | 0.13 | 0.00 | 86 | 1015.1 |
| 20260507063558 | 8 | 340 | 8.0 | 12.9 | 0.00 | 0.13 | 0.00 | 86 | 1015.1 |
| 20260507063057 | 8 | 338 | 8.0 | 11.3 | 0.00 | 0.13 | 0.00 | 87 | 1015.1 |
| 20260507062557 | 8 | 318 | 8.0 | 11.3 | 0.00 | 0.13 | 0.00 | 87 | 1015.1 |
| 20260507062057 | 8 | 341 | 6.4 | 11.3 | 0.00 | 0.13 | 0.00 | 87 | 1015.0 |
| 20260507061557 | 8 | 357 | 6.4 | 11.3 | 0.00 | 0.13 | 0.00 | 87 | 1015.0 |
| 20260507061055 | 8 | 352 | 8.0 | 14.5 | 0.00 | 0.13 | 0.00 | 88 | 1015.0 |
| 20260507060552 | 8 | 324 | 9.7 | 14.5 | 0.00 | 0.13 | 0.00 | 89 | 1015.0 |
| 20260507060101 | 7 | 346 | 6.4 | 11.3 | 0.00 | 0.13 | 0.00 | 89 | 1014.8 |
| 20260507060053 | 8 | 326 | 8.0 | 14.5 | 0.00 | 0.13 | 0.00 | 88 | 1014.9 |
| 20260507055815 | 7 | 357 | 8.0 | 11.3 | 0.00 | 0.13 | 0.00 | 89 | 1014.8 |
| 20260507054549 | 7 | 323 | 8.0 | 12.9 | 0.00 | 0.13 | 0.00 | 89 | 1014.8 |
| 20260507054048 | 7 | 320 | 6.4 | 12.9 | 0.00 | 0.13 | 0.00 | 89 | 1014.8 |
| 20260507053549 | 7 | 353 | 6.4 | 12.9 | 0.00 | 0.13 | 0.00 | 89 | 1014.8 |
| 20260507053048 | 7 | 346 | 4.8 | 9.7 | 0.00 | 0.13 | 0.00 | 90 | 1014.7 |
| 20260507052549 | 7 | 350 | 4.8 | 8.0 | 0.00 | 0.13 | 0.00 | 89 | 1014.7 |
| 20260507052050 | 7 | 340 | 3.2 | 8.0 | 0.00 | 0.13 | 0.00 | 89 | 1014.7 |
| 20260507051549 | 7 | 350 | 3.2 | 6.4 | 0.00 | 0.13 | 0.00 | 89 | 1014.6 |
| 20260507051049 | 7 | 337 | 3.2 | 8.0 | 0.00 | 0.13 | 0.00 | 90 | 1014.6 |
| 20260507050549 | 7 | 310 | 3.2 | 8.0 | 0.00 | 0.13 | 0.00 | 90 | 1014.5 |
| 20260507050046 | 6 | 312 | 4.8 | 6.4 | 0.00 | 0.13 | 0.00 | 91 | 1014.4 |
| 20260507045544 | 6 | 311 | 4.8 | 8.0 | 0.00 | 0.13 | 0.00 | 91 | 1014.4 |
| 20260507045040 | 6 | 299 | 4.8 | 9.7 | 0.00 | 0.13 | 0.00 | 92 | 1014.3 |
| 20260507044809 | 6 | 308 | 6.4 | 9.7 | 0.00 | 0.13 | 0.00 | 92 | 1014.3 |
| 20260507044041 | 6 | 319 | 6.4 | 9.7 | 0.00 | 0.13 | 0.00 | 93 | 1014.2 |
| 20260507043538 | 6 | 333 | 6.4 | 9.7 | 0.00 | 0.13 | 0.00 | 92 | 1014.2 |
| 20260507043038 | 6 | 309 | 6.4 | 9.7 | 0.00 | 0.13 | 0.00 | 92 | 1014.2 |
| 20260507042808 | 6 | 321 | 4.8 | 8.0 | 0.00 | 0.13 | 0.00 | 92 | 1014.1 |
| 20260507042039 | 6 | 307 | 6.4 | 9.7 | 0.00 | 0.13 | 0.00 | 92 | 1014.1 |
| 20260507041539 | 6 | 333 | 6.4 | 9.7 | 0.00 | 0.13 | 0.00 | 92 | 1014.1 |
| 20260507041055 | 6 | 312 | 6.4 | 9.7 | 0.00 | 0.13 | 0.00 | 93 | 1014.0 |
| 20260507041048 | 6 | 320 | 6.4 | 9.7 | 0.00 | 0.13 | 0.00 | 93 | 1014.1 |
| 20260507040302 | 6 | 333 | 6.4 | 9.7 | 0.00 | 0.13 | 0.00 | 93 | 1014.0 |
| 20260507035534 | 6 | 296 | 4.8 | 8.0 | 0.00 | 0.13 | 0.00 | 94 | 1013.9 |
| 20260507035032 | 6 | 318 | 4.8 | 9.7 | 0.00 | 0.13 | 0.00 | 94 | 1013.8 |
| 20260507034532 | 6 | 326 | 6.4 | 9.7 | 0.00 | 0.13 | 0.00 | 94 | 1013.8 |
| 20260507034032 | 6 | 324 | 6.4 | 8.0 | 0.00 | 0.13 | 0.00 | 94 | 1013.8 |
| 20260507033813 | 6 | 321 | 4.8 | 8.0 | 0.00 | 0.13 | 0.00 | 94 | 1013.8 |
| 20260507033031 | 6 | 338 | 4.8 | 9.7 | 0.00 | 0.13 | 0.00 | 95 | 1013.8 |
| 20260507032531 | 6 | 320 | 6.4 | 9.7 | 0.00 | 0.13 | 0.00 | 95 | 1013.8 |
| 20260507032031 | 6 | 329 | 6.4 | 9.7 | 0.00 | 0.13 | 0.00 | 95 | 1013.7 |
| 20260507031531 | 6 | 323 | 6.4 | 9.7 | 0.00 | 0.13 | 0.00 | 95 | 1013.7 |
| 20260507031308 | 6 | 329 | 6.4 | 9.7 | 0.00 | 0.13 | 0.00 | 96 | 1013.7 |
| 20260507031033 | 6 | 321 | 6.4 | 9.7 | 0.00 | 0.13 | 0.00 | 95 | 1013.7 |
| 20260507030032 | 6 | 347 | 6.4 | 9.7 | 0.00 | 0.13 | 0.00 | 96 | 1013.6 |
| 20260507025804 | 6 | 327 | 6.4 | 11.3 | 0.00 | 0.13 | 0.00 | 95 | 1013.7 |
| 20260507025031 | 6 | 335 | 6.4 | 11.3 | 0.00 | 0.13 | 0.00 | 95 | 1013.7 |
| 20260507024531 | 6 | 325 | 6.4 | 11.3 | 0.00 | 0.13 | 0.00 | 95 | 1013.6 |
| 20260507024030 | 6 | 332 | 6.4 | 9.7 | 0.00 | 0.13 | 0.00 | 95 | 1013.6 |
| 20260507023527 | 6 | 340 | 6.4 | 9.7 | 0.00 | 0.13 | 0.00 | 95 | 1013.6 |
| 20260507023027 | 6 | 345 | 6.4 | 9.7 | 0.00 | 0.15 | 0.00 | 95 | 1013.5 |
| 20260507022528 | 6 | 329 | 6.4 | 9.7 | 0.00 | 0.15 | 0.00 | 95 | 1013.5 |
| 20260507022027 | 6 | 307 | 6.4 | 9.7 | 0.00 | 0.15 | 0.00 | 95 | 1013.4 |
| 20260507021528 | 6 | 340 | 6.4 | 9.7 | 0.00 | 0.15 | 0.00 | 95 | 1013.4 |
| 20260507021028 | 6 | 323 | 6.4 | 9.7 | 0.00 | 0.15 | 0.00 | 95 | 1013.4 |
| 20260507020527 | 6 | 10 | 4.8 | 9.7 | 0.00 | 0.15 | 0.00 | 95 | 1013.4 |
| 20260507020258 | 6 | 293 | 4.8 | 6.4 | 0.00 | 0.15 | 0.00 | 95 | 1013.3 |
| 20260507015805 | 6 | 318 | 4.8 | 6.4 | 0.00 | 0.15 | 0.00 | 94 | 1013.3 |
| 20260507015305 | 6 | 308 | 3.2 | 6.4 | 0.00 | 0.15 | 0.00 | 93 | 1013.3 |
| 20260507014526 | 6 | 310 | 3.2 | 4.8 | 0.00 | 0.15 | 0.00 | 91 | 1013.2 |
| 20260507014031 | 7 | 314 | 3.2 | 6.4 | 0.00 | 0.15 | 0.00 | 88 | 1013.2 |
| 20260507014026 | 6 | 283 | 3.2 | 4.8 | 0.00 | 0.15 | 0.00 | 89 | 1013.2 |
| 20260507013023 | 7 | 5 | 4.8 | 8.0 | 0.00 | 0.15 | 0.00 | 87 | 1013.2 |
| 20260507012519 | 7 | 15 | 6.4 | 9.7 | 0.00 | 0.15 | 0.00 | 87 | 1013.3 |
| 20260507012016 | 7 | 30 | 9.7 | 11.3 | 0.00 | 0.15 | 0.00 | 85 | 1013.2 |
| 20260507011517 | 7 | 24 | 9.7 | 14.5 | 0.00 | 0.15 | 0.00 | 85 | 1013.1 |
| 20260507011017 | 7 | 25 | 11.3 | 14.5 | 0.00 | 0.15 | 0.00 | 85 | 1013.1 |
| 20260507010517 | 7 | 16 | 11.3 | 14.5 | 0.00 | 0.15 | 0.00 | 86 | 1013.0 |
| 20260507010017 | 7 | 18 | 12.9 | 16.1 | 0.00 | 0.15 | 0.00 | 87 | 1013.0 |
| 20260507005747 | 7 | 13 | 11.3 | 16.1 | 0.00 | 0.15 | 0.00 | 88 | 1013.0 |
| 20260507005257 | 7 | 4 | 9.7 | 14.5 | 0.00 | 0.15 | 0.00 | 90 | 1013.0 |
| 20260507004517 | 7 | 357 | 8.0 | 11.3 | 0.00 | 0.15 | 0.00 | 92 | 1013.0 |
| 20260507004015 | 7 | 3 | 6.4 | 11.3 | 0.00 | 0.15 | 0.00 | 93 | 1013.0 |
| 20260507003514 | 7 | 337 | 8.0 | 11.3 | 0.00 | 0.15 | 0.00 | 92 | 1013.0 |
| 20260507003011 | 7 | 352 | 8.0 | 12.9 | 0.00 | 0.15 | 0.00 | 91 | 1012.9 |
| 20260507002512 | 7 | 336 | 9.7 | 12.9 | 0.00 | 0.15 | 0.00 | 91 | 1012.9 |
| 20260507002254 | 7 | 350 | 9.7 | 14.5 | 0.00 | 0.15 | 0.00 | 91 | 1012.9 |
| 20260507001508 | 7 | 334 | 11.3 | 16.1 | 0.00 | 0.15 | 0.00 | 90 | 1012.9 |
| 20260507001011 | 8 | 353 | 11.3 | 16.1 | 0.00 | 0.15 | 0.00 | 90 | 1012.9 |
| 20260507000510 | 8 | 339 | 9.7 | 14.5 | 0.00 | 0.15 | 0.00 | 89 | 1012.8 |
| 20260507000246 | 8 | 353 | 9.7 | 14.5 | 0.00 | 0.15 | 0.00 | 89 | 1012.8 |
| 20260506235509 | 8 | 344 | 9.7 | 14.5 | 0.00 | 0.15 | 0.00 | 89 | 1012.8 |
| 20260506235009 | 8 | 353 | 11.3 | 16.1 | 0.00 | 0.15 | 0.00 | 88 | 1012.8 |
| 20260506234733 | 8 | 343 | 11.3 | 16.1 | 0.00 | 0.15 | 0.00 | 87 | 1012.7 |
| 20260506234008 | 8 | 347 | 11.3 | 14.5 | 0.00 | 0.15 | 0.00 | 87 | 1012.7 |
| 20260506233508 | 9 | 337 | 11.3 | 14.5 | 0.00 | 0.15 | 0.00 | 85 | 1012.7 |
| 20260506233007 | 9 | 337 | 11.3 | 14.5 | 0.00 | 0.15 | 0.00 | 85 | 1012.6 |
| 20260506232505 | 9 | 343 | 11.3 | 14.5 | 0.00 | 0.15 | 0.00 | 84 | 1012.6 |
| 20260506232004 | 9 | 358 | 11.3 | 14.5 | 0.00 | 0.15 | 0.00 | 83 | 1012.6 |
| 20260506231504 | 9 | 336 | 11.3 | 16.1 | 0.00 | 0.15 | 0.00 | 82 | 1012.6 |
| 20260506231004 | 10 | 359 | 11.3 | 17.7 | 0.00 | 0.15 | 0.00 | 82 | 1012.5 |
| 20260506230504 | 10 | 359 | 11.3 | 17.7 | 0.00 | 0.15 | 0.00 | 81 | 1012.5 |
| 20260506230237 | 10 | 349 | 11.3 | 16.1 | 0.00 | 0.15 | 0.00 | 81 | 1012.5 |
| 20260506225505 | 10 | 343 | 11.3 | 16.1 | 0.00 | 0.15 | 0.00 | 81 | 1012.5 |
| 20260506225002 | 10 | 347 | 12.9 | 19.3 | 0.00 | 0.15 | 0.00 | 80 | 1012.4 |
| 20260506224504 | 10 | 34 | 14.5 | 19.3 | 0.00 | 0.15 | 0.00 | 80 | 1012.3 |
| 20260506224003 | 10 | 7 | 14.5 | 17.7 | 0.00 | 0.15 | 0.00 | 80 | 1012.3 |
| 20260506223506 | 10 | 8 | 14.5 | 17.7 | 0.00 | 0.15 | 0.00 | 80 | 1012.4 |
| 20260506223003 | 10 | 359 | 14.5 | 17.7 | 0.00 | 0.15 | 0.00 | 80 | 1012.4 |
| 20260506222503 | 10 | 8 | 12.9 | 17.7 | 0.00 | 0.15 | 0.00 | 79 | 1012.4 |
| 20260506222001 | 10 | 3 | 11.3 | 17.7 | 0.00 | 0.15 | 0.00 | 79 | 1012.3 |
| 20260506221751 | 10 | 14 | 11.3 | 14.5 | 0.00 | 0.15 | 0.00 | 80 | 1012.4 |
| 20260506221005 | 10 | 11 | 9.7 | 14.5 | 0.00 | 0.15 | 0.00 | 79 | 1012.3 |
| 20260506220732 | 10 | 338 | 8.0 | 12.9 | 0.00 | 0.15 | 0.00 | 78 | 1012.3 |
| 20260506220229 | 10 | 1 | 9.7 | 12.9 | 0.00 | 0.15 | 0.15 | 78 | 1012.3 |
| 20260506215500 | 10 | 56 | 11.3 | 14.5 | 0.00 | 0.15 | 0.15 | 77 | 1012.2 |
| 20260506214959 | 10 | 8 | 11.3 | 14.5 | 0.00 | 0.15 | 0.15 | 76 | 1012.2 |
| 20260506214500 | 10 | 18 | 12.9 | 16.1 | 0.00 | 0.15 | 0.15 | 77 | 1012.1 |
| 20260506213959 | 10 | 9 | 12.9 | 16.1 | 0.00 | 0.15 | 0.15 | 76 | 1012.1 |
| 20260506213500 | 10 | 23 | 12.9 | 16.1 | 0.00 | 0.15 | 0.15 | 76 | 1012.1 |
| 20260506212959 | 10 | 19 | 11.3 | 16.1 | 0.00 | 0.15 | 0.15 | 76 | 1012.1 |
| 20260506212500 | 10 | 8 | 12.9 | 17.7 | 0.00 | 0.15 | 0.15 | 76 | 1012.0 |
| 20260506211956 | 11 | 14 | 14.5 | 19.3 | 0.00 | 0.15 | 0.15 | 77 | 1011.9 |
| 20260506211456 | 11 | 17 | 14.5 | 19.3 | 0.00 | 0.15 | 0.15 | 76 | 1011.9 |
| 20260506210956 | 11 | 350 | 12.9 | 20.9 | 0.00 | 0.15 | 0.15 | 76 | 1011.8 |
| 20260506210457 | 11 | 12 | 12.9 | 20.9 | 0.00 | 0.15 | 0.15 | 75 | 1011.8 |
| 20260506205953 | 11 | 339 | 11.3 | 16.1 | 0.00 | 0.15 | 0.15 | 76 | 1011.8 |
| 20260506205722 | 11 | 349 | 11.3 | 16.1 | 0.00 | 0.15 | 0.15 | 76 | 1011.7 |
| 20260506204951 | 11 | 1 | 11.3 | 16.1 | 0.00 | 0.15 | 0.15 | 76 | 1011.7 |
| 20260506204450 | 11 | 357 | 11.3 | 17.7 | 0.00 | 0.15 | 0.15 | 76 | 1011.7 |
| 20260506203950 | 11 | 358 | 11.3 | 19.3 | 0.00 | 0.15 | 0.15 | 77 | 1011.7 |
| 20260506203450 | 11 | 343 | 11.3 | 19.3 | 0.00 | 0.15 | 0.15 | 77 | 1011.7 |
| 20260506202950 | 11 | 358 | 9.7 | 16.1 | 0.00 | 0.15 | 0.15 | 77 | 1011.7 |
| 20260506202451 | 11 | 338 | 9.7 | 16.1 | 0.00 | 0.15 | 0.15 | 77 | 1011.6 |
| 20260506202221 | 11 | 355 | 9.7 | 12.9 | 0.00 | 0.15 | 0.15 | 76 | 1011.6 |
| 20260506201451 | 11 | 2 | 9.7 | 12.9 | 0.00 | 0.15 | 0.15 | 75 | 1011.6 |
| 20260506200948 | 11 | 331 | 9.7 | 17.7 | 0.00 | 0.15 | 0.15 | 74 | 1011.6 |
| 20260506200448 | 11 | 345 | 11.3 | 17.7 | 0.00 | 0.15 | 0.15 | 72 | 1011.5 |
| 20260506195948 | 11 | 338 | 11.3 | 16.1 | 0.00 | 0.15 | 0.15 | 70 | 1011.5 |
| 20260506195715 | 11 | 345 | 9.7 | 16.1 | 0.00 | 0.15 | 0.15 | 66 | 1011.5 |
| 20260506194946 | 11 | 333 | 6.4 | 11.3 | 0.00 | 0.15 | 0.15 | 67 | 1011.4 |
| 20260506194446 | 11 | 341 | 4.8 | 8.0 | 0.00 | 0.15 | 0.15 | 66 | 1011.4 |
| 20260506194230 | 11 | 1 | 4.8 | 8.0 | 0.00 | 0.15 | 0.15 | 67 | 1011.4 |
| 20260506193446 | 11 | 341 | 3.2 | 6.4 | 0.00 | 0.15 | 0.15 | 66 | 1011.3 |
| 20260506192947 | 11 | 23 | 3.2 | 6.4 | 0.00 | 0.15 | 0.15 | 66 | 1011.3 |
| 20260506192447 | 11 | 351 | 3.2 | 6.4 | 0.00 | 0.15 | 0.15 | 68 | 1011.2 |
| 20260506191946 | 11 | 60 | 4.8 | 17.7 | 0.00 | 0.15 | 0.15 | 67 | 1011.1 |
| 20260506191446 | 11 | 71 | 9.7 | 17.7 | 0.00 | 0.15 | 0.15 | 67 | 1011.1 |
| 20260506191227 | 11 | 34 | 14.5 | 22.5 | 0.00 | 0.15 | 0.15 | 64 | 1010.9 |
| 20260506190443 | 11 | 19 | 16.1 | 24.1 | 0.00 | 0.15 | 0.15 | 66 | 1010.9 |
| 20260506185940 | 11 | 11 | 16.1 | 24.1 | 0.00 | 0.15 | 0.15 | 64 | 1010.8 |
| 20260506185440 | 11 | 11 | 12.9 | 20.9 | 0.00 | 0.15 | 0.15 | 65 | 1010.8 |
| 20260506184940 | 11 | 19 | 12.9 | 19.3 | 0.00 | 0.15 | 0.15 | 68 | 1010.7 |
| 20260506184438 | 11 | 14 | 14.5 | 19.3 | 0.00 | 0.15 | 0.15 | 65 | 1010.6 |
| 20260506183938 | 11 | 351 | 12.9 | 16.1 | 0.00 | 0.15 | 0.15 | 65 | 1010.6 |
| 20260506183437 | 11 | 16 | 12.9 | 16.1 | 0.00 | 0.15 | 0.15 | 66 | 1010.6 |
| 20260506182938 | 11 | 24 | 12.9 | 17.7 | 0.00 | 0.15 | 0.15 | 65 | 1010.5 |
| 20260506182437 | 12 | 26 | 11.3 | 17.7 | 0.00 | 0.15 | 0.15 | 66 | 1010.4 |
| 20260506181937 | 12 | 29 | 9.7 | 14.5 | 0.00 | 0.15 | 0.15 | 65 | 1010.5 |
| 20260506181438 | 12 | 31 | 8.0 | 12.9 | 0.00 | 0.15 | 0.15 | 65 | 1010.4 |
| 20260506180939 | 12 | 3 | 8.0 | 11.3 | 0.00 | 0.15 | 0.15 | 66 | 1010.4 |
| 20260506180438 | 12 | 19 | 8.0 | 11.3 | 0.00 | 0.15 | 0.15 | 64 | 1010.3 |
| 20260506175938 | 12 | 30 | 4.8 | 8.0 | 0.00 | 0.15 | 0.15 | 65 | 1010.2 |
| 20260506175438 | 12 | 3 | 4.8 | 9.7 | 0.00 | 0.15 | 0.15 | 65 | 1010.2 |
| 20260506174936 | 12 | 26 | 6.4 | 9.7 | 0.00 | 0.15 | 0.15 | 63 | 1010.1 |
| 20260506174432 | 12 | 30 | 6.4 | 9.7 | 0.00 | 0.15 | 0.15 | 63 | 1010.0 |
| 20260506173933 | 12 | 30 | 6.4 | 9.7 | 0.00 | 0.18 | 0.15 | 63 | 1010.0 |
| 20260506173432 | 12 | 28 | 6.4 | 9.7 | 0.00 | 0.18 | 0.15 | 63 | 1009.9 |
| 20260506172932 | 12 | 26 | 6.4 | 9.7 | 0.00 | 0.18 | 0.15 | 62 | 1009.9 |
| 20260506172431 | 12 | 33 | 6.4 | 9.7 | 0.00 | 0.18 | 0.15 | 62 | 1009.8 |
| 20260506171931 | 12 | 35 | 6.4 | 9.7 | 0.00 | 0.18 | 0.15 | 58 | 1009.7 |
| 20260506171431 | 12 | 63 | 6.4 | 9.7 | 0.00 | 0.18 | 0.15 | 58 | 1009.7 |
| 20260506170932 | 12 | 63 | 6.4 | 11.3 | 0.00 | 0.18 | 0.15 | 59 | 1009.7 |
| 20260506170438 | 12 | 43 | 6.4 | 11.3 | 0.00 | 0.18 | 0.15 | 58 | 1009.6 |
| 20260506165938 | 12 | 30 | 6.4 | 11.3 | 0.00 | 0.18 | 0.15 | 59 | 1009.6 |
| 20260506165435 | 12 | 38 | 6.4 | 11.3 | 0.00 | 0.18 | 0.15 | 60 | 1009.6 |
| 20260506164932 | 12 | 37 | 8.0 | 12.9 | 0.00 | 0.18 | 0.15 | 62 | 1009.6 |
| 20260506164437 | 12 | 65 | 9.7 | 14.5 | 0.00 | 0.20 | 0.15 | 57 | 1009.6 |
| 20260506164430 | 12 | 34 | 9.7 | 14.5 | 0.00 | 0.20 | 0.15 | 60 | 1009.6 |
| 20260506163427 | 12 | 38 | 9.7 | 14.5 | 0.00 | 0.20 | 0.15 | 55 | 1009.6 |
| 20260506162928 | 12 | 44 | 9.7 | 17.7 | 0.00 | 0.20 | 0.15 | 57 | 1009.6 |
| 20260506162428 | 12 | 52 | 9.7 | 17.7 | 0.00 | 0.20 | 0.15 | 59 | 1009.6 |
| 20260506161928 | 12 | 58 | 9.7 | 14.5 | 0.00 | 0.23 | 0.15 | 57 | 1009.6 |
| 20260506161427 | 12 | 33 | 9.7 | 17.7 | 0.00 | 0.23 | 0.15 | 56 | 1009.5 |
| 20260506160928 | 12 | 43 | 11.3 | 19.3 | 0.00 | 0.23 | 0.15 | 54 | 1009.5 |
| 20260506160427 | 12 | 48 | 12.9 | 19.3 | 0.00 | 0.23 | 0.15 | 57 | 1009.5 |
| 20260506155926 | 12 | 44 | 12.9 | 24.1 | 0.00 | 0.23 | 0.15 | 57 | 1009.5 |
| 20260506155425 | 12 | 63 | 12.9 | 24.1 | 0.00 | 0.23 | 0.15 | 58 | 1009.6 |
| 20260506155159 | 12 | 34 | 12.9 | 25.7 | 0.00 | 0.23 | 0.15 | 58 | 1009.5 |
| 20260506154925 | 12 | 38 | 12.9 | 20.9 | 0.00 | 0.23 | 0.15 | 59 | 1009.6 |
| 20260506153920 | 12 | 41 | 14.5 | 25.7 | 0.00 | 0.23 | 0.15 | 57 | 1009.5 |
| 20260506153419 | 12 | 17 | 14.5 | 24.1 | 0.00 | 0.23 | 0.15 | 60 | 1009.5 |
| 20260506152916 | 12 | 33 | 12.9 | 20.9 | 0.00 | 0.23 | 0.15 | 59 | 1009.5 |
| 20260506152416 | 12 | 12 | 11.3 | 20.9 | 0.00 | 0.23 | 0.15 | 58 | 1009.5 |
| 20260506152147 | 12 | 37 | 11.3 | 20.9 | 0.00 | 0.23 | 0.15 | 57 | 1009.6 |
| 20260506151417 | 12 | 31 | 11.3 | 20.9 | 0.00 | 0.23 | 0.15 | 57 | 1009.5 |
| 20260506150917 | 12 | 48 | 12.9 | 20.9 | 0.00 | 0.23 | 0.15 | 58 | 1009.5 |
| 20260506150417 | 12 | 57 | 12.9 | 19.3 | 0.00 | 0.23 | 0.15 | 56 | 1009.5 |
| 20260506150148 | 12 | 38 | 14.5 | 27.4 | 0.00 | 0.23 | 0.15 | 57 | 1009.5 |
| 20260506145414 | 12 | 43 | 16.1 | 30.6 | 0.00 | 0.23 | 0.15 | 57 | 1009.4 |
| 20260506144911 | 12 | 35 | 16.1 | 30.6 | 0.00 | 0.23 | 0.15 | 57 | 1009.4 |
| 20260506144408 | 12 | 37 | 12.9 | 20.9 | 0.00 | 0.23 | 0.15 | 57 | 1009.4 |
| 20260506143908 | 12 | 46 | 12.9 | 19.3 | 0.00 | 0.23 | 0.15 | 57 | 1009.4 |
| 20260506143406 | 12 | 37 | 12.9 | 20.9 | 0.00 | 0.23 | 0.15 | 59 | 1009.4 |
| 20260506142906 | 12 | 56 | 12.9 | 22.5 | 0.00 | 0.23 | 0.15 | 56 | 1009.3 |
| 20260506142406 | 12 | 42 | 12.9 | 22.5 | 0.00 | 0.23 | 0.15 | 58 | 1009.4 |
| 20260506141906 | 12 | 37 | 14.5 | 22.5 | 0.00 | 0.23 | 0.15 | 57 | 1009.4 |
| 20260506141406 | 12 | 42 | 14.5 | 27.4 | 0.00 | 0.23 | 0.15 | 58 | 1009.5 |
| 20260506141137 | 12 | 69 | 17.7 | 30.6 | 0.00 | 0.23 | 0.15 | 58 | 1009.4 |
| 20260506140407 | 12 | 34 | 17.7 | 30.6 | 0.00 | 0.23 | 0.15 | 58 | 1009.3 |
| 20260506135907 | 12 | 36 | 14.5 | 25.7 | 0.00 | 0.23 | 0.15 | 56 | 1009.4 |
| 20260506135403 | 12 | 39 | 14.5 | 25.7 | 0.00 | 0.23 | 0.15 | 57 | 1009.4 |
| 20260506134902 | 12 | 27 | 14.5 | 25.7 | 0.00 | 0.23 | 0.15 | 55 | 1009.3 |
| 20260506134636 | 12 | 60 | 14.5 | 25.7 | 0.00 | 0.23 | 0.15 | 53 | 1009.3 |
| 20260506133900 | 12 | 31 | 14.5 | 25.7 | 0.00 | 0.23 | 0.15 | 53 | 1009.2 |
| 20260506133400 | 13 | 36 | 14.5 | 25.7 | 0.00 | 0.23 | 0.15 | 54 | 1009.3 |
| 20260506132858 | 12 | 31 | 19.3 | 38.6 | 0.00 | 0.23 | 0.15 | 53 | 1009.2 |
| 20260506132357 | 12 | 38 | 25.7 | 38.6 | 0.00 | 0.23 | 0.15 | 52 | 1009.1 |
| 20260506131855 | 12 | 16 | 29.0 | 41.8 | 0.00 | 0.23 | 0.15 | 51 | 1009.1 |
| 20260506131355 | 12 | 23 | 29.0 | 41.8 | 0.00 | 0.23 | 0.15 | 52 | 1008.8 |
| 20260506130855 | 12 | 31 | 27.4 | 38.6 | 0.00 | 0.23 | 0.15 | 52 | 1008.9 |
| 20260506130356 | 12 | 25 | 22.5 | 33.8 | 0.00 | 0.23 | 0.13 | 52 | 1009.0 |
| 20260506125856 | 13 | 27 | 20.9 | 37.0 | 0.00 | 0.23 | 0.13 | 53 | 1009.0 |
| 20260506125632 | 13 | 36 | 22.5 | 37.0 | 0.00 | 0.23 | 0.13 | 52 | 1008.9 |
| 20260506124856 | 13 | 21 | 24.1 | 33.8 | 0.00 | 0.23 | 0.13 | 52 | 1008.9 |
| 20260506124354 | 13 | 14 | 22.5 | 33.8 | 0.00 | 0.23 | 0.13 | 52 | 1008.8 |
| 20260506123855 | 13 | 32 | 19.3 | 33.8 | 0.00 | 0.23 | 0.13 | 58 | 1008.7 |
| 20260506123355 | 13 | 39 | 19.3 | 32.2 | 0.00 | 0.23 | 0.13 | 60 | 1008.6 |
| 20260506122855 | 12 | 28 | 20.9 | 32.2 | 0.00 | 0.23 | 0.13 | 62 | 1008.7 |
| 20260506122354 | 12 | 29 | 17.7 | 30.6 | 0.00 | 0.23 | 0.13 | 60 | 1008.7 |
| 20260506122123 | 12 | 11 | 14.5 | 24.1 | 0.00 | 0.23 | 0.13 | 60 | 1008.7 |
| 20260506121350 | 12 | 11 | 14.5 | 22.5 | 0.00 | 0.23 | 0.13 | 63 | 1008.8 |
| 20260506120849 | 12 | 9 | 14.5 | 22.5 | 0.00 | 0.23 | 0.13 | 63 | 1008.8 |
| 20260506120350 | 12 | 5 | 12.9 | 17.7 | 0.00 | 0.23 | 0.13 | 66 | 1008.8 |
| 20260506115849 | 12 | 3 | 12.9 | 19.3 | 0.00 | 0.23 | 0.13 | 70 | 1008.8 |
| 20260506115350 | 12 | 20 | 14.5 | 24.1 | 0.00 | 0.23 | 0.13 | 69 | 1008.8 |
| 20260506114849 | 12 | 7 | 16.1 | 24.1 | 0.00 | 0.23 | 0.13 | 69 | 1008.8 |
| 20260506114350 | 12 | 11 | 17.7 | 25.7 | 0.00 | 0.23 | 0.13 | 70 | 1008.8 |
| 20260506113850 | 12 | 10 | 17.7 | 25.7 | 0.00 | 0.23 | 0.13 | 71 | 1008.7 |
| 20260506113350 | 11 | 6 | 17.7 | 25.7 | 0.00 | 0.23 | 0.13 | 72 | 1008.8 |
| 20260506112850 | 11 | 3 | 16.1 | 29.0 | 0.00 | 0.23 | 0.13 | 74 | 1008.9 |
| 20260506112350 | 11 | 16 | 19.3 | 29.0 | 0.00 | 0.23 | 0.13 | 74 | 1008.9 |
| 20260506111849 | 11 | 11 | 19.3 | 27.4 | 0.00 | 0.23 | 0.13 | 74 | 1008.8 |
| 20260506111347 | 11 | 1 | 19.3 | 29.0 | 0.00 | 0.23 | 0.13 | 75 | 1008.8 |
| 20260506110848 | 11 | 6 | 19.3 | 29.0 | 0.00 | 0.23 | 0.13 | 76 | 1008.7 |
| 20260506110344 | 11 | 0 | 20.9 | 30.6 | 0.00 | 0.23 | 0.13 | 77 | 1008.8 |
| 20260506105845 | 11 | 21 | 22.5 | 40.2 | 0.00 | 0.23 | 0.13 | 77 | 1008.7 |
| 20260506105345 | 11 | 18 | 24.1 | 40.2 | 0.00 | 0.23 | 0.13 | 78 | 1008.6 |
| 20260506104844 | 11 | 13 | 24.1 | 33.8 | 0.00 | 0.23 | 0.13 | 76 | 1008.7 |
| 20260506104345 | 11 | 8 | 24.1 | 38.6 | 0.00 | 0.23 | 0.13 | 77 | 1008.5 |
| 20260506103845 | 12 | 13 | 27.4 | 38.6 | 0.00 | 0.23 | 0.13 | 77 | 1008.6 |
| 20260506103621 | 12 | 9 | 27.4 | 38.6 | 0.00 | 0.23 | 0.13 | 74 | 1008.2 |
| 20260506103616 | 12 | 8 | 25.7 | 35.4 | 0.03 | 0.23 | 0.13 | 73 | 1008.5 |
| 20260506102343 | 12 | 6 | 22.5 | 33.8 | 0.03 | 0.23 | 0.13 | 71 | 1008.5 |
| 20260506101842 | 12 | 13 | 20.9 | 27.4 | 0.05 | 0.23 | 0.13 | 68 | 1008.4 |
| 20260506101339 | 12 | 9 | 22.5 | 35.4 | 0.05 | 0.23 | 0.13 | 65 | 1008.4 |
| 20260506100836 | 12 | 4 | 24.1 | 35.4 | 0.05 | 0.20 | 0.13 | 67 | 1008.2 |
| 20260506100604 | 12 | 6 | 22.5 | 35.4 | 0.05 | 0.20 | 0.13 | 68 | 1008.1 |
| 20260506095834 | 12 | 20 | 22.5 | 35.4 | 0.05 | 0.20 | 0.13 | 68 | 1008.1 |
| 20260506095337 | 13 | 33 | 24.1 | 35.4 | 0.10 | 0.20 | 0.13 | 65 | 1008.3 |
| 20260506094836 | 13 | 16 | 22.5 | 35.4 | 0.10 | 0.20 | 0.13 | 65 | 1008.1 |
| 20260506094335 | 13 | 30 | 20.9 | 40.2 | 0.10 | 0.20 | 0.13 | 65 | 1008.0 |
| 20260506093835 | 13 | 43 | 25.7 | 45.1 | 0.10 | 0.20 | 0.13 | 64 | 1008.1 |
| 20260506093601 | 12 | 28 | 30.6 | 45.1 | 0.10 | 0.20 | 0.13 | 64 | 1008.1 |
| 20260506092835 | 12 | 25 | 32.2 | 45.1 | 0.10 | 0.20 | 0.10 | 64 | 1007.9 |
| 20260506092335 | 12 | 16 | 27.4 | 41.8 | 0.10 | 0.18 | 0.10 | 66 | 1007.7 |
| 20260506091835 | 12 | 14 | 24.1 | 37.0 | 0.08 | 0.18 | 0.08 | 67 | 1007.7 |
| 20260506091336 | 12 | 29 | 22.5 | 35.4 | 0.08 | 0.18 | 0.08 | 67 | 1008.0 |
| 20260506090833 | 12 | 27 | 25.7 | 41.8 | 0.08 | 0.18 | 0.08 | 65 | 1007.8 |
| 20260506090329 | 12 | 31 | 30.6 | 45.1 | 0.05 | 0.15 | 0.05 | 68 | 1007.9 |
| 20260506085826 | 12 | 32 | 29.0 | 45.1 | 0.05 | 0.15 | 0.05 | 66 | 1007.8 |